Location: Unspecified
(50.7693°N, 0.0000°E)
Time: 23:04:50
(UTC+00:00)

SR - Pass Details

Date: 03 July 2019
Orbit: 575 x 881 km, 66.7° (Epoch: 12 October)

Event Time Altitude Azimuth Distance (km) Brightness Sun altitude
Rises 02:32:18 0° 245° (WSW) 2,786 - -9.3°
Exits shadow 02:33:56 - 251° (WSW) 2,163 ? -9.2°
Reaches altitude 10° 02:34:39 10° 255° (WSW) 1,904 ? -9.1°
Maximum altitude 02:38:31 33° 320° (NW) 1,025 ? -8.8°
Drops below altitude 10° 02:42:35 10° 26° (NNE) 2,009 ? -8.4°
Sets 02:45:08 0° 36° (NE) 2,967 ? -8.2°
